When you browse on this site, cookies collect data to enhance your experience and personalize the content and advertising you see.
Visit our Privacy Policy to learn more. By continuing to use the site, you agree to this use of cookies and data.
  • In Norway
  • List of Countries
  • For 7 days
  • Water Temperature
  • Satellite Maps
  • Weather Map
  • Weather Widgets
  • user-avatar
    Login

    Hourly Weather Hobart

    Today, 25 March, Monday

    Time Temperature Precipitation Wind Pressure Humidity
    00:00 +19°C° 0.1 mm 6 mps 730 mmHg 74%
    01:00 +18°C° 0.1 mm 7 mps 729 mmHg 74%
    02:00 +17°C° 0.1 mm 7 mps 729 mmHg 70%
    03:00 +16°C° 0.1 mm 7 mps 728 mmHg 66%
    04:00 +13°C° 0 mm 8 mps 727 mmHg 58%
    05:00 +12°C° 0 mm 8 mps 728 mmHg 55%
    06:00 +11°C° 0 mm 9 mps 729 mmHg 53%
    07:00 +10°C° 0 mm 9 mps 729 mmHg 50%
    08:00 +11°C° 0 mm 9 mps 729 mmHg 49%
    09:00 +11°C° 0 mm 9 mps 730 mmHg 47%
    10:00 +12°C° 0 mm 9 mps 730 mmHg 47%
    11:00 +12°C° 0.2 mm 9 mps 730 mmHg 48%
    12:00 +11°C° 0.2 mm 9 mps 730 mmHg 49%
    13:00 +11°C° 0.2 mm 9 mps 731 mmHg 49%
    14:00 +11°C° 0 mm 9 mps 731 mmHg 47%
    15:00 +11°C° 0 mm 9 mps 731 mmHg 45%
    16:00 +10°C° 0 mm 9 mps 731 mmHg 42%
    17:00 +8°C° 0 mm 9 mps 732 mmHg 46%
    18:00 +8°C° 0 mm 9 mps 732 mmHg 51%
    19:00 +7°C° 0 mm 9 mps 732 mmHg 55%
    20:00 +8°C° 0 mm 9 mps 732 mmHg 57%
    21:00 +8°C° 0 mm 9 mps 732 mmHg 59%
    22:00 +8°C° 0 mm 9 mps 732 mmHg 62%
    23:00 +8°C° 0 mm 9 mps 733 mmHg 61%

    Tomorrow, 26 March, Tuesday

    Time Temperature Precipitation Wind Pressure Humidity
    00:00 +10°C° 0 mm 9 mps 733 mmHg 59%
    01:00 +10°C° 0 mm 8 mps 733 mmHg 58%
    02:00 +10°C° 0 mm 8 mps 734 mmHg 58%
    03:00 +10°C° 0 mm 8 mps 734 mmHg 58%
    04:00 +10°C° 0 mm 8 mps 735 mmHg 58%
    05:00 +10°C° 0 mm 8 mps 736 mmHg 60%
    06:00 +10°C° 0 mm 8 mps 737 mmHg 62%
    07:00 +10°C° 0 mm 7 mps 738 mmHg 64%
    08:00 +10°C° 0 mm 8 mps 739 mmHg 60%
    09:00 +11°C° 0 mm 8 mps 740 mmHg 57%
    10:00 +12°C° 0 mm 8 mps 741 mmHg 53%
    11:00 +12°C° 0 mm 8 mps 742 mmHg 52%
    12:00 +12°C° 0 mm 8 mps 743 mmHg 51%
    13:00 +12°C° 0 mm 7 mps 744 mmHg 50%
    14:00 +12°C° 0 mm 7 mps 744 mmHg 51%
    15:00 +13°C° 0 mm 6 mps 745 mmHg 52%
    16:00 +13°C° 0 mm 6 mps 746 mmHg 52%
    17:00 +12°C° 0 mm 5 mps 746 mmHg 58%
    18:00 +11°C° 0 mm 4 mps 747 mmHg 63%
    19:00 +10°C° 0 mm 3 mps 748 mmHg 69%
    20:00 +9°C° 0 mm 3 mps 748 mmHg 73%
    21:00 +9°C° 0 mm 3 mps 749 mmHg 77%
    22:00 +8°C° 0 mm 3 mps 750 mmHg 82%
    23:00 +8°C° 0 mm 2 mps 750 mmHg 83%

    Day after tomorrow, 27 March, Wednesday

    Time Temperature Precipitation Wind Pressure Humidity
    00:00 +8°C° 0 mm 2 mps 750 mmHg 84%
    01:00 +8°C° 0 mm 2 mps 751 mmHg 85%
    02:00 +8°C° 0 mm 2 mps 751 mmHg 87%
    03:00 +8°C° 0 mm 2 mps 751 mmHg 89%
    04:00 +7°C° 0 mm 2 mps 751 mmHg 91%
    05:00 +7°C° 0 mm 2 mps 751 mmHg 91%
    06:00 +8°C° 0 mm 2 mps 751 mmHg 92%
    07:00 +8°C° 0 mm 2 mps 752 mmHg 92%
    08:00 +10°C° 0 mm 2 mps 752 mmHg 80%
    09:00 +14°C° 0 mm 2 mps 752 mmHg 68%
    10:00 +16°C° 0 mm 2 mps 752 mmHg 57%
    11:00 +18°C° 0 mm 2 mps 752 mmHg 51%
    12:00 +20°C° 0 mm 2 mps 752 mmHg 45%
    13:00 +22°C° 0 mm 1 mps 752 mmHg 40%
    14:00 +22°C° 0 mm 1 mps 751 mmHg 42%
    15:00 +21°C° 0 mm 2 mps 751 mmHg 43%
    16:00 +20°C° 0 mm 2 mps 750 mmHg 45%
    17:00 +19°C° 0 mm 1 mps 750 mmHg 56%
    18:00 +16°C° 0 mm 1 mps 750 mmHg 66%
    19:00 +12°C° 0 mm 0 mps 750 mmHg 76%
    20:00 +13°C° 0 mm 1 mps 750 mmHg 79%
    21:00 +12°C° 0 mm 1 mps 750 mmHg 81%
    22:00 +12°C° 0 mm 1 mps 750 mmHg 83%
    23:00 +12°C° 0 mm 1 mps 750 mmHg 86%

    28 March, Thursday

    Time Temperature Precipitation Wind Pressure Humidity
    00:00 +10°C° 0 mm 2 mps 750 mmHg 88%
    01:00 +10°C° 0 mm 2 mps 749 mmHg 90%
    02:00 +9°C° 0 mm 2 mps 749 mmHg 90%
    03:00 +9°C° 0 mm 2 mps 749 mmHg 91%
    04:00 +9°C° 0 mm 2 mps 748 mmHg 91%
    05:00 +9°C° 0 mm 2 mps 748 mmHg 90%
    06:00 +9°C° 0 mm 2 mps 748 mmHg 89%
    07:00 +9°C° 0 mm 2 mps 748 mmHg 88%
    08:00 +13°C° 0 mm 2 mps 748 mmHg 75%
    09:00 +17°C° 0 mm 3 mps 748 mmHg 62%
    10:00 +20°C° 0 mm 3 mps 747 mmHg 48%
    11:00 +21°C° 0 mm 3 mps 746 mmHg 43%
    12:00 +23°C° 0 mm 4 mps 746 mmHg 37%
    13:00 +26°C° 0 mm 4 mps 745 mmHg 32%
    14:00 +25°C° 0 mm 4 mps 744 mmHg 32%
    15:00 +25°C° 0 mm 4 mps 743 mmHg 33%
    16:00 +25°C° 0 mm 5 mps 742 mmHg 34%
    17:00 +22°C° 0 mm 4 mps 742 mmHg 40%
    18:00 +20°C° 0 mm 4 mps 742 mmHg 46%
    19:00 +18°C° 0 mm 3 mps 741 mmHg 52%
    20:00 +17°C° 0 mm 3 mps 741 mmHg 56%
    21:00 +16°C° 0 mm 3 mps 741 mmHg 61%
    22:00 +14°C° 0 mm 3 mps 741 mmHg 65%
    23:00 +14°C° 0 mm 3 mps 741 mmHg 65%

    29 March, Friday

    Time Temperature Precipitation Wind Pressure Humidity
    00:00 +14°C° 0 mm 3 mps 741 mmHg 64%
    01:00 +14°C° 0 mm 3 mps 740 mmHg 63%
    02:00 +14°C° 0.1 mm 3 mps 740 mmHg 65%
    03:00 +15°C° 0.1 mm 2 mps 740 mmHg 68%
    04:00 +15°C° 0.1 mm 2 mps 740 mmHg 70%
    05:00 +14°C° 0.2 mm 2 mps 740 mmHg 75%
    06:00 +14°C° 0.2 mm 2 mps 740 mmHg 79%
    07:00 +14°C° 0.2 mm 2 mps 740 mmHg 83%
    08:00 +13°C° 0.4 mm 2 mps 740 mmHg 84%
    09:00 +13°C° 0.4 mm 1 mps 740 mmHg 84%
    10:00 +13°C° 0.4 mm 1 mps 740 mmHg 85%
    11:00 +13°C° 0.1 mm 2 mps 740 mmHg 78%
    12:00 +14°C° 0.1 mm 2 mps 740 mmHg 70%
    13:00 +15°C° 0.1 mm 2 mps 740 mmHg 63%
    14:00 +13°C° 0.3 mm 3 mps 740 mmHg 62%
    15:00 +13°C° 0.3 mm 3 mps 740 mmHg 60%
    16:00 +12°C° 0.3 mm 3 mps 740 mmHg 59%
    17:00 +11°C° 0 mm 3 mps 741 mmHg 63%
    18:00 +9°C° 0 mm 3 mps 741 mmHg 66%
    19:00 +8°C° 0 mm 3 mps 742 mmHg 70%
    20:00 +7°C° 0 mm 3 mps 742 mmHg 73%
    21:00 +7°C° 0 mm 3 mps 743 mmHg 76%
    22:00 +5°C° 0 mm 3 mps 743 mmHg 79%
    23:00 +5°C° 0 mm 2 mps 743 mmHg 81%

    30 March, Saturday

    Time Temperature Precipitation Wind Pressure Humidity
    00:00 +5°C° 0 mm 2 mps 743 mmHg 84%
    01:00 +4°C° 0 mm 2 mps 742 mmHg 87%
    02:00 +4°C° 0 mm 2 mps 743 mmHg 86%
    03:00 +3°C° 0 mm 3 mps 743 mmHg 86%
    04:00 +3°C° 0 mm 3 mps 743 mmHg 85%
    05:00 +3°C° 0 mm 3 mps 743 mmHg 81%
    06:00 +4°C° 0 mm 3 mps 743 mmHg 78%
    07:00 +5°C° 0 mm 3 mps 743 mmHg 74%
    08:00 +7°C° 0 mm 3 mps 742 mmHg 67%
    09:00 +8°C° 0 mm 4 mps 741 mmHg 59%
    10:00 +11°C° 0 mm 4 mps 741 mmHg 52%
    11:00 +10°C° 0.2 mm 5 mps 740 mmHg 58%
    12:00 +10°C° 0.2 mm 5 mps 739 mmHg 64%
    13:00 +11°C° 0.2 mm 6 mps 738 mmHg 71%
    14:00 +10°C° 0.5 mm 6 mps 738 mmHg 74%
    15:00 +10°C° 0.5 mm 6 mps 739 mmHg 77%
    16:00 +9°C° 0.5 mm 6 mps 739 mmHg 81%
    17:00 +8°C° 0.1 mm 5 mps 739 mmHg 81%
    18:00 +8°C° 0.1 mm 5 mps 740 mmHg 81%
    19:00 +7°C° 0.1 mm 4 mps 741 mmHg 80%
    20:00 +7°C° 0 mm 4 mps 741 mmHg 82%
    21:00 +7°C° 0 mm 4 mps 741 mmHg 83%
    22:00 +8°C° 0 mm 3 mps 742 mmHg 85%
    23:00 +8°C° 0 mm 3 mps 741 mmHg 85%
    Show more